Location: Vinland
(47.7731°N, 122.6974°W)
Time: 22:14:08
(UTC+00:00)

Tiros 1 - Pass Details

Date: 03 April 2023
Orbit: 627 x 660 km, 48.4° (Epoch: 28 May)

Event Time Altitude Azimuth Distance (km) Brightness Sun altitude
Exits shadow 12:06:36 29° 261° (W) 1,218 8.0 -16.5°
Maximum altitude 12:09:05 89° 352° (N) 665 7.1 -16.2°
Drops below altitude 10° 12:13:54 10° 81° (E) 2,078 10.9 -15.5°
Sets 12:16:15 0° 82° (E) 2,991 12.1 -15.1°
